GW2510 Weather Reports


Display with metric or nautical units.
time (UTC)temp
F
wind
direction
speed
MPH
gust
MPH
rain 1hr
in
rain 24hr
in
rain mn
in
humidity
%
barometer
mb
20260906101539 68 98 1.0 3.0 0.00 0.00 0.00 88 1015.5
20260906101033 68 71 2.0 3.0 0.00 0.00 0.00 88 1015.4
20260906100529 68 46 1.0 3.0 0.00 0.00 0.00 88 1015.4
20260906100024 69 11 1.0 2.0 0.00 0.00 0.00 87 1015.4
20260906095524 69 59 2.0 3.0 0.00 0.00 0.00 87 1015.3
20260906095020 69 91 2.0 6.0 0.00 0.00 0.00 86 1015.3
20260906094518 69 32 3.0 6.0 0.00 0.00 0.00 87 1015.3
20260906094014 69 48 1.0 3.0 0.00 0.00 0.00 86 1015.4
20260906093510 70 12 1.0 3.0 0.00 0.00 0.00 88 1015.4
20260906093010 70 43 1.0 7.0 0.00 0.00 0.00 89 1015.4
20260906092505 70 71 1.0 2.0 0.00 0.00 0.00 90 1015.2
20260906092000 70 109 1.0 4.0 0.00 0.00 0.00 90 1015.2
20260906091456 71 49 2.0 3.0 0.00 0.00 0.00 91 1015.1
20260906090953 71 37 2.0 7.0 0.00 0.00 0.00 92 1015.1
20260906090447 71 64 2.0 6.0 0.00 0.00 0.00 93 1015.1
20260906085947 71 78 2.0 4.0 0.00 0.00 0.00 93 1015.1
20260906085446 71 43 2.0 3.0 0.00 0.00 0.00 94 1015.0
20260906084945 71 74 2.0 3.0 0.00 0.00 0.00 94 1014.9
20260906084441 71 18 4.0 6.0 0.00 0.00 0.00 94 1014.8
20260906083939 72 49 2.0 3.0 0.00 0.00 0.00 94 1014.7
20260906083435 72 32 3.0 3.0 0.00 0.00 0.00 94 1014.8
20260906082934 72 89 1.0 3.0 0.00 0.00 0.00 95 1014.8
20260906082430 72 46 3.0 3.0 0.00 0.00 0.00 95 1014.7
20260906081925 71 86 2.0 6.0 0.00 0.00 0.00 95 1014.7
20260906081421 71 45 2.0 2.0 0.00 0.00 0.00 95 1014.8
20260906080917 71 56 1.0 2.0 0.00 0.00 0.00 95 1014.9
20260906080414 71 26 1.0 3.0 0.00 0.00 0.00 96 1014.8
20260906075912 71 109 1.0 2.0 0.00 0.00 0.00 96 1014.7
20260906075408 71 53 1.0 2.0 0.00 0.00 0.00 96 1014.6
20260906074903 71 31 2.0 7.0 0.00 0.00 0.00 96 1014.6
20260906074402 71 67 2.0 3.0 0.00 0.00 0.00 96 1014.6
20260906073901 71 34 0.0 2.0 0.00 0.00 0.00 96 1014.7
20260906073356 71 47 2.0 2.0 0.00 0.00 0.00 96 1014.6
20260906072853 72 43 0.0 2.0 0.00 0.00 0.00 96 1014.7
20260906072348 71 55 2.0 3.0 0.00 0.00 0.00 96 1014.6
20260906071844 71 81 1.0 1.0 0.00 0.00 0.00 96 1014.6
20260906071339 71 81 0.0 0.0 0.00 0.00 0.00 96 1014.7
20260906070835 71 16 0.0 0.0 0.00 0.00 0.00 96 1014.5
20260906070331 71 35 1.0 1.0 0.00 0.00 0.00 96 1014.6
20260906065826 71 20 0.0 0.0 0.00 0.00 0.00 96 1014.6
20260906065321 71 345 0.0 1.0 0.00 0.00 0.00 96 1014.6
20260906064817 71 347 0.0 1.0 0.00 0.00 0.00 96 1014.7
20260906064313 71 355 0.0 0.0 0.00 0.00 0.00 96 1014.7
20260906063812 71 1 0.0 1.0 0.00 0.00 0.00 95 1014.8
20260906063308 72 60 0.0 0.0 0.00 0.00 0.00 95 1014.8
20260906062803 72 60 0.0 0.0 0.00 0.00 0.00 95 1014.8
20260906062305 72 60 0.0 0.0 0.00 0.00 0.00 95 1014.5
20260906061758 72 60 0.0 0.0 0.00 0.00 0.00 95 1014.7
20260906061254 72 60 0.0 0.0 0.00 0.00 0.00 95 1014.8
20260906060749 72 60 0.0 0.0 0.00 0.00 0.00 95 1014.7
20260906060247 72 60 0.0 1.0 0.00 0.00 0.00 95 1014.6
20260906055742 72 60 0.0 1.0 0.00 0.00 0.00 95 1014.8
20260906055237 72 51 0.0 0.0 0.00 0.00 0.00 95 1014.7
20260906054732 72 19 0.0 0.0 0.00 0.00 0.00 95 1014.6
20260906054227 72 5 0.0 1.0 0.00 0.00 0.00 95 1014.5
20260906053724 72 46 0.0 0.0 0.00 0.00 0.00 95 1014.6
20260906053219 72 46 0.0 1.0 0.00 0.00 0.00 95 1014.6
20260906052714 72 4 0.0 0.0 0.00 0.00 0.00 95 1014.5
20260906052211 72 4 0.0 0.0 0.00 0.00 0.00 95 1014.5
20260906051708 72 4 0.0 1.0 0.00 0.00 0.00 94 1014.7
20260906051207 72 18 0.0 0.0 0.00 0.00 0.00 94 1014.4
20260906050702 72 3 1.0 1.0 0.00 0.00 0.00 94 1014.5
20260906050157 73 335 1.0 3.0 0.00 0.00 0.00 94 1014.4
20260906045655 73 65 0.0 1.0 0.00 0.00 0.00 93 1014.4
20260906045151 73 32 0.0 1.0 0.00 0.00 0.00 93 1014.3
20260906044647 73 23 1.0 2.0 0.00 0.00 0.00 93 1014.3
20260906044142 73 9 1.0 2.0 0.00 0.00 0.00 92 1014.3
20260906043638 73 31 1.0 2.0 0.00 0.00 0.00 92 1014.4
20260906043134 73 70 0.0 1.0 0.00 0.00 0.00 92 1014.1
20260906042633 73 58 1.0 2.0 0.00 0.00 0.00 92 1014.0
20260906042127 73 303 0.0 2.0 0.00 0.00 0.00 92 1013.9
20260906041623 73 18 0.0 3.0 0.00 0.00 0.00 93 1014.2
20260906041124 73 70 1.0 2.0 0.00 0.00 0.00 93 1014.1
20260906040619 73 39 1.0 2.0 0.00 0.00 0.00 93 1014.2
20260906040115 73 299 1.0 2.0 0.00 0.00 0.00 93 1014.1
20260906035610 73 43 1.0 2.0 0.00 0.00 0.00 93 1014.1
20260906035106 73 12 0.0 3.0 0.00 0.00 0.00 92 1014.3
20260906034605 73 51 0.0 2.0 0.00 0.00 0.00 92 1014.3
20260906034100 73 8 0.0 3.0 0.00 0.00 0.00 92 1014.4
20260906033556 73 32 0.0 2.0 0.00 0.00 0.00 92 1014.2
20260906033051 74 346 1.0 3.0 0.00 0.00 0.00 91 1014.1
20260906032548 74 35 1.0 3.0 0.00 0.00 0.00 91 1014.2
20260906032047 74 57 1.0 4.0 0.00 0.00 0.00 91 1014.0
20260906031543 74 46 2.0 3.0 0.00 0.00 0.00 91 1014.0
20260906031038 74 60 1.0 3.0 0.00 0.00 0.00 91 1014.0
20260906030537 74 11 2.0 2.0 0.00 0.00 0.00 90 1014.2
20260906030038 75 31 1.0 4.0 0.00 0.00 0.00 90 1014.1
20260906025537 75 16 1.0 2.0 0.00 0.00 0.00 90 1014.3
20260906025036 75 343 1.0 6.0 0.00 0.00 0.00 90 1014.0
20260906024532 75 32 2.0 3.0 0.00 0.00 0.00 89 1014.0
20260906024031 76 34 2.0 3.0 0.00 0.00 0.00 89 1014.0
20260906023528 76 28 2.0 2.0 0.00 0.00 0.00 88 1014.0
20260906023022 76 65 1.0 4.0 0.00 0.00 0.00 88 1014.1
20260906022518 76 342 2.0 3.0 0.00 0.00 0.00 88 1013.9
20260906022013 76 27 1.0 2.0 0.00 0.00 0.00 87 1013.9
20260906021508 77 45 2.0 4.0 0.00 0.00 0.00 87 1013.8
20260906021002 77 38 1.0 1.0 0.00 0.00 0.00 87 1013.6
20260906020501 77 26 2.0 3.0 0.00 0.00 0.00 86 1013.4
20260906020001 78 64 1.0 6.0 0.00 0.00 0.00 86 1013.4
20260906015500 78 39 2.0 6.0 0.00 0.00 0.00 86 1013.3
20260906015000 78 342 4.0 6.0 0.00 0.00 0.00 86 1013.3
20260906014455 78 12 2.0 3.0 0.00 0.00 0.00 85 1013.4
20260906013951 79 10 1.0 3.0 0.00 0.00 0.00 84 1013.2
20260906013447 79 19 2.0 3.0 0.00 0.00 0.00 84 1013.2
20260906012943 79 351 1.0 2.0 0.00 0.00 0.00 84 1013.0
20260906012443 80 48 0.0 2.0 0.00 0.00 0.00 83 1013.1
20260906011942 80 11 2.0 3.0 0.00 0.00 0.00 83 1013.0
20260906011437 80 31 1.0 4.0 0.00 0.00 0.00 83 1013.1
20260906010933 80 333 2.0 2.0 0.00 0.00 0.00 83 1013.0
20260906010428 80 45 1.0 3.0 0.00 0.00 0.00 83 1012.8
20260906005924 81 335 1.0 1.0 0.00 0.00 0.00 82 1012.9
20260906005424 81 28 1.0 3.0 0.00 0.00 0.00 81 1012.6
20260906004922 81 35 2.0 3.0 0.00 0.00 0.00 81 1012.5
20260906004416 82 53 1.0 3.0 0.00 0.00 0.00 80 1012.4
20260906003912 82 41 3.0 4.0 0.00 0.00 0.00 80 1012.3
20260906003407 82 30 2.0 3.0 0.00 0.00 0.00 80 1012.4
20260906002903 82 315 2.0 7.0 0.00 0.00 0.00 81 1012.4
20260906002402 83 303 2.0 3.0 0.00 0.00 0.00 81 1012.3
20260906001857 83 330 1.0 2.0 0.00 0.00 0.00 80 1012.3
20260906001353 83 27 2.0 2.0 0.00 0.00 0.00 79 1012.3
20260906000853 84 330 4.0 6.0 0.00 0.00 0.00 79 1012.3
20260906000355 84 26 2.0 6.0 0.00 0.00 0.00 78 1012.3
20260905235849 84 296 1.0 7.0 0.00 0.00 0.00 78 1012.2
20260905235343 85 327 2.0 4.0 0.00 0.00 0.00 78 1012.3
20260905234838 85 68 2.0 4.0 0.00 0.00 0.00 79 1012.2
20260905234333 86 21 2.0 3.0 0.00 0.00 0.00 78 1012.2
20260905233829 86 317 1.0 2.0 0.00 0.00 0.00 78 1012.1
20260905233323 86 299 4.0 6.0 0.00 0.00 0.00 78 1012.1
20260905232822 87 52 0.0 3.0 0.00 0.00 0.00 78 1011.9
20260905232319 87 17 1.0 4.0 0.00 0.00 0.00 76 1011.9
20260905231814 88 13 1.0 2.0 0.00 0.00 0.00 75 1011.9
20260905231309 88 328 2.0 3.0 0.00 0.00 0.00 73 1011.9
20260905230806 89 70 2.0 3.0 0.00 0.00 0.00 73 1011.6
20260905230304 90 61 2.0 7.0 0.00 0.00 0.00 72 1011.5
20260905225803 90 356 3.0 3.0 0.00 0.00 0.00 71 1011.7
20260905225258 90 27 2.0 6.0 0.00 0.00 0.00 71 1011.7
20260905224758 91 343 4.0 7.0 0.00 0.00 0.00 69 1011.5
20260905224253 90 5 1.0 4.0 0.00 0.00 0.00 71 1011.5
20260905223749 90 339 2.0 4.0 0.00 0.00 0.00 71 1011.4
20260905223246 90 354 3.0 4.0 0.00 0.00 0.00 71 1011.4
20260905222741 91 265 4.0 4.0 0.00 0.00 0.00 69 1011.5
20260905222240 93 33 2.0 4.0 0.00 0.00 0.00 68 1011.6
20260905221736 94 44 1.0 3.0 0.00 0.00 0.00 67 1011.5
20260905221233 93 48 1.0 2.0 0.00 0.00 0.00 67 1011.5
20260905220728 93 315 4.0 6.0 0.00 0.00 0.00 66 1011.4
20260905220224 93 347 2.0 7.0 0.00 0.00 0.00 67 1011.4
20260905215724 93 321 4.0 6.0 0.00 0.00 0.00 67 1011.4
20260905215220 93 303 2.0 4.0 0.00 0.00 0.00 67 1011.3
20260905214715 93 343 2.0 4.0 0.00 0.00 0.00 67 1011.4
20260905214210 93 284 2.0 3.0 0.00 0.00 0.00 65 1011.4
20260905213706 92 270 2.0 3.0 0.00 0.00 0.00 67 1011.5
20260905213202 92 277 1.0 2.0 0.00 0.00 0.00 64 1011.5
20260905212656 93 272 2.0 2.0 0.00 0.00 0.00 64 1011.6
20260905212156 94 309 1.0 2.0 0.00 0.00 0.00 60 1011.4
20260905211650 94 271 1.0 3.0 0.00 0.00 0.00 60 1011.5
20260905211146 93 327 0.0 3.0 0.00 0.00 0.00 62 1011.7
20260905210643 94 269 4.0 4.0 0.00 0.00 0.00 61 1011.5
20260905210142 94 255 2.0 3.0 0.00 0.00 0.00 63 1011.6
20260905205641 94 256 2.0 3.0 0.00 0.00 0.00 67 1011.8
20260905205141 93 255 2.0 3.0 0.00 0.00 0.00 64 1011.6
20260905204641 92 296 2.0 3.0 0.00 0.00 0.00 65 1011.9
20260905204136 92 255 3.0 4.0 0.00 0.00 0.00 64 1011.9
20260905203631 92 291 1.0 4.0 0.00 0.00 0.00 64 1011.8
20260905203126 92 291 2.0 3.0 0.00 0.00 0.00 62 1011.9
20260905202622 91 296 2.0 4.0 0.00 0.00 0.00 61 1011.7
20260905202117 91 278 3.0 4.0 0.00 0.00 0.00 58 1011.9
20260905201612 90 318 1.0 6.0 0.00 0.00 0.00 59 1012.1
20260905201111 90 278 2.0 7.0 0.00 0.00 0.00 57 1012.1
20260905200607 87 286 3.0 6.0 0.00 0.00 0.00 56 1012.1
20260905195555 87 257 3.0 7.0 0.00 0.00 0.00 64 1012.3
20260905195051 87 300 3.0 7.0 0.00 0.00 0.00 67 1012.4
20260905194551 89 286 3.0 4.0 0.00 0.00 0.00 73 1012.5
20260905194050 90 323 2.0 4.0 0.00 0.00 0.00 69 1012.4
20260905193545 91 276 1.0 3.0 0.00 0.00 0.00 69 1012.5
20260905193040 92 277 1.0 2.0 0.00 0.00 0.00 67 1012.3
20260905192535 93 347 1.0 3.0 0.00 0.00 0.00 64 1012.2
20260905192032 95 20 1.0 1.0 0.00 0.00 0.00 62 1012.5
20260905191531 95 350 1.0 2.0 0.00 0.00 0.00 62 1012.6
20260905191030 96 357 1.0 2.0 0.00 0.00 0.00 61 1012.5
20260905190528 96 94 2.0 2.0 0.00 0.00 0.00 61 1012.4
20260905190028 95 95 0.0 0.0 0.00 0.00 0.00 61 1012.6
20260905185527 94 67 1.0 2.0 0.00 0.00 0.00 62 1012.6
20260905185027 94 302 2.0 2.0 0.00 0.00 0.00 61 1012.8
20260905184527 93 165 1.0 4.0 0.00 0.00 0.00 65 1012.9
20260905184025 93 278 2.0 3.0 0.00 0.00 0.00 64 1013.0
20260905183525 94 274 3.0 6.0 0.00 0.00 0.00 61 1013.1
20260905183021 94 229 1.0 2.0 0.00 0.00 0.00 64 1013.3
20260905182520 94 277 1.0 2.0 0.00 0.00 0.00 64 1013.1
20260905182015 93 263 3.0 3.0 0.00 0.00 0.00 63 1013.3
20260905181510 92 272 2.0 2.0 0.00 0.00 0.00 64 1013.2
20260905181009 94 275 2.0 3.0 0.00 0.00 0.00 65 1013.4
20260905180504 92 280 0.0 2.0 0.00 0.00 0.00 64 1013.4
20260905175959 92 164 1.0 3.0 0.00 0.00 0.00 66 1013.5
20260905175458 92 88 2.0 4.0 0.00 0.00 0.00 65 1013.6
20260905174954 92 66 1.0 2.0 0.00 0.00 0.00 64 1013.9
20260905174449 92 251 2.0 2.0 0.00 0.00 0.00 66 1013.8
20260905173945 91 317 0.0 2.0 0.00 0.00 0.00 66 1013.7
20260905173441 91 221 1.0 4.0 0.00 0.00 0.00 69 1013.6
20260905172936 90 170 1.0 3.0 0.00 0.00 0.00 66 1013.7
20260905172434 90 101 4.0 4.0 0.00 0.00 0.00 66 1013.7
20260905171930 91 44 1.0 6.0 0.00 0.00 0.00 65 1013.9
20260905171427 90 72 0.0 2.0 0.00 0.00 0.00 66 1013.7
20260905170923 90 158 1.0 3.0 0.00 0.00 0.00 66 1013.7
20260905170419 90 52 2.0 4.0 0.00 0.00 0.00 67 1014.0
20260905165918 91 214 1.0 2.0 0.00 0.00 0.00 65 1014.1
20260905165413 90 117 2.0 3.0 0.00 0.00 0.00 66 1014.1
20260905164908 90 142 2.0 4.0 0.00 0.00 0.00 66 1014.1
20260905164403 89 137 0.0 3.0 0.00 0.00 0.00 65 1014.2
20260905163858 89 85 4.0 6.0 0.00 0.00 0.00 65 1014.0
20260905163354 88 158 0.0 3.0 0.00 0.00 0.00 68 1014.1
20260905162850 87 158 2.0 3.0 0.00 0.00 0.00 68 1014.1
20260905162350 86 132 2.0 6.0 0.00 0.00 0.00 71 1014.1
20260905161844 88 168 1.0 2.0 0.00 0.00 0.00 68 1014.1
20260905161344 87 248 0.0 1.0 0.00 0.00 0.00 67 1014.2
20260905160843 85 130 2.0 3.0 0.00 0.00 0.00 70 1014.3
20260905160337 84 140 2.0 6.0 0.00 0.00 0.00 71 1014.1
20260905155832 84 119 0.0 3.0 0.00 0.00 0.00 71 1014.2
20260905155331 85 108 2.0 4.0 0.00 0.00 0.00 70 1014.2
20260905154830 86 100 2.0 4.0 0.00 0.00 0.00 67 1014.4
20260905154326 86 142 4.0 7.0 0.00 0.00 0.00 67 1014.4
20260905153821 87 132 2.0 7.0 0.00 0.00 0.00 67 1014.2
20260905153318 87 124 2.0 4.0 0.00 0.00 0.00 67 1014.4
20260905152817 86 94 1.0 4.0 0.00 0.00 0.00 68 1014.5
20260905152316 86 123 3.0 6.0 0.00 0.00 0.00 68 1014.2
20260905151812 85 76 2.0 4.0 0.00 0.00 0.00 70 1014.3
20260905151308 85 302 3.0 6.0 0.00 0.00 0.00 69 1014.0
20260905150807 85 196 5.0 7.0 0.00 0.00 0.00 69 1014.2
20260905150307 85 170 4.0 6.0 0.00 0.00 0.00 71 1014.5
20260905145804 83 76 2.0 7.0 0.00 0.00 0.00 73 1014.6
20260905145259 83 100 5.0 8.0 0.00 0.00 0.00 73 1014.6
20260905144758 83 130 1.0 8.0 0.00 0.00 0.00 75 1014.4
20260905144254 84 106 2.0 7.0 0.00 0.00 0.00 74 1014.3
20260905143752 84 191 3.0 7.0 0.00 0.00 0.00 74 1014.3
20260905143253 83 190 4.0 4.0 0.00 0.00 0.00 76 1014.3
20260905142751 82 142 2.0 6.0 0.00 0.00 0.00 76 1014.5
20260905142246 82 74 2.0 6.0 0.00 0.00 0.00 77 1014.3
20260905141742 83 95 4.0 6.0 0.00 0.00 0.00 77 1014.2
20260905141237 83 94 3.0 3.0 0.00 0.00 0.00 79 1014.2
20260905140733 82 156 2.0 7.0 0.00 0.00 0.00 81 1014.4
20260905140227 81 92 3.0 6.0 0.00 0.00 0.00 82 1014.3
20260905135726 81 134 2.0 8.0 0.00 0.00 0.00 84 1014.4
20260905135222 81 106 3.0 4.0 0.00 0.00 0.00 83 1014.3
20260905134722 81 147 8.0 9.0 0.00 0.00 0.00 83 1014.4
20260905134221 81 169 2.0 6.0 0.00 0.00 0.00 86 1014.3
20260905133716 80 128 3.0 6.0 0.00 0.00 0.00 88 1014.2
20260905133211 78 93 4.0 6.0 0.00 0.00 0.00 91 1014.3
20260905132710 77 123 4.0 7.0 0.00 0.00 0.00 94 1014.2
20260905132206 76 44 1.0 4.0 0.00 0.00 0.00 95 1014.3
20260905131701 77 88 4.0 4.0 0.00 0.00 0.00 94 1014.1
20260905131156 78 151 0.0 0.0 0.00 0.00 0.00 94 1014.0
20260905130656 78 151 0.0 0.0 0.00 0.00 0.00 94 1013.9
20260905130155 76 151 0.0 0.0 0.00 0.00 0.00 95 1013.9
20260905125650 76 151 0.0 0.0 0.00 0.00 0.00 95 1013.9
20260905125146 76 151 0.0 0.0 0.00 0.00 0.00 95 1014.0
20260905124642 77 151 0.0 0.0 0.00 0.00 0.00 95 1013.8
20260905124138 78 151 0.0 0.0 0.00 0.00 0.00 94 1013.8
20260905123632 78 151 0.0 0.0 0.00 0.00 0.00 94 1014.0
20260905123130 77 151 0.0 0.0 0.00 0.00 0.00 94 1013.8
20260905122629 76 151 0.0 0.0 0.00 0.00 0.00 95 1013.7
20260905122124 76 151 0.0 0.0 0.00 0.00 0.00 96 1013.6
20260905121619 76 151 0.0 0.0 0.00 0.00 0.00 96 1013.6
20260905121114 76 150 0.0 1.0 0.00 0.00 0.00 97 1013.6
20260905120613 75 150 0.0 0.0 0.00 0.00 0.00 97 1013.7
20260905120108 75 150 0.0 0.0 0.00 0.00 0.00 97 1013.6
20260905115608 74 150 0.0 0.0 0.00 0.00 0.00 98 1013.4
20260905115102 74 150 0.0 0.0 0.00 0.00 0.00 97 1013.6
20260905114602 74 150 0.0 0.0 0.00 0.00 0.00 97 1013.5
20260905114101 74 150 0.0 0.0 0.00 0.00 0.00 97 1013.5
20260905113556 74 150 0.0 0.0 0.00 0.00 0.00 97 1013.4
20260905113051 74 150 0.0 0.0 0.00 0.00 0.00 98 1013.4
20260905112546 74 150 0.0 0.0 0.00 0.00 0.00 98 1013.4
20260905112042 74 150 0.0 0.0 0.00 0.00 0.00 98 1013.5
20260905111537 74 150 0.0 0.0 0.00 0.00 0.00 98 1013.5
20260905111036 74 150 0.0 0.0 0.00 0.00 0.00 98 1013.5
20260905110535 74 150 0.0 0.0 0.00 0.00 0.00 98 1013.4
20260905110031 74 150 0.0 0.0 0.00 0.00 0.00 98 1013.2
20260905105530 73 150 0.0 0.0 0.00 0.00 0.00 98 1013.4
20260905105030 73 150 0.0 0.0 0.00 0.00 0.00 97 1013.5
20260905104526 73 150 0.0 0.0 0.00 0.00 0.00 97 1013.7
20260905104025 73 150 0.0 0.0 0.00 0.00 0.00 97 1013.4
20260905103521 73 150 0.0 0.0 0.00 0.00 0.00 97 1013.4
20260905103017 74 150 0.0 0.0 0.00 0.00 0.00 97 1013.4
20260905102512 73 150 0.0 0.0 0.00 0.00 0.00 97 1013.4
20260905102009 73 150 0.0 0.0 0.00 0.00 0.00 97 1013.6